This is the latest recevied weather packets stored in our database for station/object BG5HLN-13. If no packets are shown the sender has not sent any weather packets the latest 10 day(s).
| Time | Temp. | Humidity | Pressure | Rain* | Wind** | Luminosity | Snow |
|---|---|---|---|---|---|---|---|
| 1777596646 | 18.33° C | 75% | 1017 hPa | 0 mm | - | - | - |
| 1777596047 | 18.33° C | 76% | 1016.9 hPa | 0 mm | - | - | - |
| 1777595446 | 17.78° C | 77% | 1017 hPa | 0 mm | - | - | - |
| 1777594847 | 17.78° C | 79% | 1017.1 hPa | 0 mm | - | - | - |
| 1777594245 | 17.22° C | 79% | 1016.9 hPa | 0 mm | - | - | - |
| 1777593646 | 16.67° C | 80% | 1016.9 hPa | 0 mm | - | - | - |
| 1777593047 | 16.67° C | 82% | 1016.7 hPa | 0 mm | - | - | - |
| 1777592447 | 16.11° C | 83% | 1016.8 hPa | 0 mm | - | - | - |
| 1777591846 | 16.11° C | 85% | 1016.9 hPa | 0 mm | - | - | - |
| 1777591246 | 15.56° C | 85% | 1016.8 hPa | 0 mm | - | - | - |
| 1777590646 | 15.56° C | 84% | 1016.6 hPa | 0 mm | - | - | - |
| 1777590046 | 15.56° C | 84% | 1016.6 hPa | 0 mm | - | - | - |
| 1777589446 | 15° C | 84% | 1016.7 hPa | 0 mm | - | - | - |
| 1777588848 | 14.44° C | 83% | 1016.6 hPa | 0 mm | - | - | - |
| 1777588845 | 15° C | 83% | 1016.6 hPa | 0 mm | - | - | - |
| 1777588245 | 15° C | 82% | 1016.4 hPa | 0 mm | - | - | - |
| 1777587645 | 15° C | 81% | 1016.4 hPa | 0 mm | - | - | - |
| 1777587045 | 15° C | 81% | 1016.3 hPa | 0 mm | - | - | - |
| 1777586445 | 15° C | 82% | 1016.3 hPa | 0 mm | - | - | - |
| 1777585844 | 15° C | 81% | 1016.3 hPa | 0 mm | - | - | - |
| 1777585143 | 15° C | 83% | 1016.3 hPa | 0 mm | - | - | - |
| 1777584542 | 15° C | 82% | 1016.1 hPa | 0 mm | - | - | - |
| 1777584028 | 15° C | 81% | 1015.9 hPa | 0 mm | - | - | - |
| 1777583943 | 15° C | 81% | 1015.9 hPa | 0 mm | - | - | - |
| 1777583342 | 15° C | 80% | 1015.8 hPa | 0 mm | - | - | - |
* Rain latest hour (hover to see other rain measurements)
** Current wind speed in m/s (hover to see current wind gust speed)